Le nostre stazioni meteo in Italia

Pubblicità
Il mio iltempo24.it
Rodkallen, Svezia (2188): Temperatura & dewpoint: 23.06.2017 00:00:00 - 29.06.2017 00:00:00 (CEST)Rodkallen, Svezia (2188): velocità del vento & gusts: 23.06.2017 00:00:00 - 29.06.2017 00:00:00 (CEST)Rodkallen, Svezia (2188): direzione del vento: 23.06.2017 00:00:00 - 29.06.2017 00:00:00 (CEST)Rodkallen, Svezia (2188): visibility: 23.06.2017 00:00:00 - 29.06.2017 00:00:00 (CEST)Rodkallen, Svezia (2188): precipitazioni: 23.06.2017 00:00:00 - 29.06.2017 00:00:00 (CEST)
Data & Tempo tt [°C] td [°C] ff [km/h] ff [kn] fx [km/h] fx [kn] dd vv [km] rr [mm]
29.06.2017 00:00:00 11,9 11,9 7 4 10 6 S 50 0,0
28.06.2017 23:00:00 12,0 12,0 10 5 11 6 S 50 0,0
28.06.2017 22:00:00 11,9 11,3 7 4 10 6 SE 49 0,0
28.06.2017 21:00:00 12,4 11,3 10 5 13 7 S 50 0,0
28.06.2017 20:00:00 12,5 10,6 8 4 14 8 SSE 45 0,0
28.06.2017 19:00:00 12,8 10,3 12 6 17 9 SSE 40 0,0
28.06.2017 18:00:00 12,8 9,6 13 7 16 8 SSE 44 0,0
28.06.2017 17:00:00 13,0 8,7 9 5 13 7 E 47 0,0
28.06.2017 16:00:00 13,3 7,9 11 6 15 8 ESE 49 0,0
28.06.2017 15:00:00 14,0 8,8 11 6 16 8 E 40 0,0
28.06.2017 14:00:00 13,8 8,8 14 7 20 11 E 50 0,0
28.06.2017 13:00:00 14,2 8,6 6 3 18 10 SSO 42 0,0
28.06.2017 12:00:00 14,5 7,5 8 5 26 14 NNE 32 0,0
28.06.2017 11:00:00 13,2 9,1 19 10 29 16 O 40 0,0
28.06.2017 10:00:00 12,8 9,2 23 13 29 16 O 46 0,0
28.06.2017 09:00:00 13,2 9,1 23 12 30 16 ONO 42 0,0
28.06.2017 08:00:00 12,7 7,4 22 12 34 18 NO 47 0,0
28.06.2017 07:00:00 12,3 7,8 22 12 34 18 NO 50 0,0
28.06.2017 06:00:00 11,7 7,4 22 12 39 21 NO 44 0,0
28.06.2017 05:00:00 11,2 7,7 23 12 35 19 NO 50 0,0
28.06.2017 04:00:00 10,9 9,2 21 11 28 15 ONO 50 0,0
28.06.2017 03:00:00 11,2 8,6 19 10 35 19 NO 50 0,0
28.06.2017 02:00:00 11,6 8,5 23 12 37 20 NO 50 0,0
28.06.2017 01:00:00 12,0 9,4 22 12 32 18 NO 50 0,0
28.06.2017 00:00:00 12,2 9,9 18 10 31 17 NO 50 0,0
27.06.2017 23:00:00 12,5 10,2 17 9 26 14 NO 50 0,0
27.06.2017 22:00:00 12,7 10,8 18 10 26 14 NO 45 0,0
27.06.2017 21:00:00 12,0 11,5 11 6 20 11 NO 50 0,9
27.06.2017 20:00:00 12,0 11,4 20 11 33 18 N 8 0,7
27.06.2017 19:00:00 12,9 11,3 27 15 34 19 ONO 43 0,0
27.06.2017 18:00:00 12,7 11,4 23 12 41 22 NO 25 0,2
27.06.2017 17:00:00 12,8 10,9 17 9 28 15 NO 24 0,0
27.06.2017 16:00:00 13,4 11,5 8 4 33 18 NNO 48 0,8
27.06.2017 15:00:00 13,3 11,4 11 6 17 9 ONO 50 0,0
27.06.2017 14:00:00 15,1 12,0 11 6 21 11 ONO 35 0,0
27.06.2017 13:00:00 13,3 12,5 14 7 24 13 NO 34 1,1
27.06.2017 12:00:00 11,5 11,5 18 10 32 18 NO 4,4 6,2
27.06.2017 11:00:00 13,6 13,6 14 7 29 16 NO 25 1,0
27.06.2017 10:00:00 12,4 12,4 14 8 35 19 NNO 34 3,2
27.06.2017 09:00:00 13,4 11,5 15 8 26 14 NNO 46 0,0
27.06.2017 08:00:00 12,6 12,0 16 9 26 14 NNO 45 0,0
27.06.2017 07:00:00 11,8 11,8 15 8 26 14 NNO 45 0,0
27.06.2017 06:00:00 11,5 11,5 17 9 27 15 NO 40 0,0
27.06.2017 05:00:00 11,6 11,6 16 8 24 13 NNO 45 0,0
27.06.2017 04:00:00 11,4 11,4 14 7 21 11 NO 50 0,0
27.06.2017 03:00:00 11,2 11,2 16 9 23 12 ONO 10 0,2
27.06.2017 02:00:00 11,3 11,3 6 3 20 11 ONO 15 0,9
27.06.2017 01:00:00 11,5 11,5 14 7 18 10 O 50 0,0
27.06.2017 00:00:00 11,5 11,5 14 8 16 9 O 50 0,0
26.06.2017 23:00:00 11,5 11,3 13 7 17 9 O 50 0,2
26.06.2017 22:00:00 11,6 11,0 14 8 17 9 O 16 0,0
26.06.2017 21:00:00 11,9 10,6 12 6 18 10 O 26 0,0
26.06.2017 20:00:00 12,6 10,1 5 3 10 6 NO 39 0,0
26.06.2017 19:00:00 12,5 10,7 5 3 8 4 SO 20 0,0
26.06.2017 18:00:00 12,7 10,2 7 4 9 5 O 50 0,0
26.06.2017 17:00:00 13,0 9,8 6 4 10 5 O 34 0,0
26.06.2017 16:00:00 13,5 9,7 7 4 12 7 O 45 0,0
26.06.2017 15:00:00 13,7 9,5 9 5 12 7 O 38 0,0
26.06.2017 14:00:00 13,5 9,0 6 3 8 4 O 31 0,0
26.06.2017 13:00:00 12,9 10,4 4 2 6 4 OSO 32 0,0
26.06.2017 12:00:00 12,2 10,8 6 3 6 4 S 36 0,0
26.06.2017 11:00:00 11,1 10,9 0 0 8 4 N 26 0,1
26.06.2017 10:00:00 9,9 9,9 8 4 10 6 SE 30 0,0
26.06.2017 09:00:00 10,0 10,0 9 5 12 6 E 35 0,0
26.06.2017 08:00:00 10,3 10,3 6 4 10 5 ENE 29 0,0
26.06.2017 07:00:00 9,9 9,9 9 5 12 6 NE 25 0,0
26.06.2017 06:00:00 10,4 10,4 7 4 14 8 SE 35 0,0
26.06.2017 05:00:00 9,9 9,9 14 8 21 11 SSE 37 0,0
26.06.2017 04:00:00 9,7 9,7 16 8 23 13 SE 28 0,0
26.06.2017 03:00:00 9,7 9,7 19 10 24 13 SE 50 0,0
26.06.2017 02:00:00 9,4 9,4 13 7 23 13 ESE 44 0,0
26.06.2017 01:00:00 9,5 9,5 16 9 21 11 ESE 39 0,0
26.06.2017 00:00:00 9,2 9,2 18 10 21 12 ESE 42 0,0
25.06.2017 23:00:00 9,2 9,2 16 9 20 11 ESE 40 0,0
25.06.2017 22:00:00 9,6 9,6 15 8 20 11 ESE 43 0,0
25.06.2017 21:00:00 9,8 9,8 14 8 19 10 ESE 42 0,0
25.06.2017 20:00:00 10,0 10,0 10 5 16 9 ESE 22 0,1
25.06.2017 19:00:00 9,6 9,6 16 8 31 17 ESE 11 0,5
25.06.2017 18:00:00 10,1 10,1 25 14 34 18 E 6 1,2
25.06.2017 17:00:00 9,9 9,9 27 14 37 20 E 9 0,4
25.06.2017 16:00:00 9,9 9,9 30 16 38 20 E 7 0,2
25.06.2017 15:00:00 9,9 9,9 27 15 38 20 E 11 0,0
25.06.2017 14:00:00 10,0 9,8 30 16 37 20 E 11 0,7
25.06.2017 13:00:00 10,1 9,8 27 15 36 19 E 13 1,4
25.06.2017 12:00:00 10,4 10,1 31 17 37 20 E 11 0,5
25.06.2017 11:00:00 11,0 9,8 29 16 33 18 ENE 39 0,0
25.06.2017 10:00:00 10,9 9,3 25 13 31 17 E 41 0,0
25.06.2017 09:00:00 10,6 9,4 24 13 30 16 E 29 0,0
25.06.2017 08:00:00 10,2 9,1 21 11 28 15 E 45 0,0
25.06.2017 07:00:00 10,4 9,2 22 12 28 15 E 50 0,0
25.06.2017 06:00:00 10,5 9,3 21 11 26 14 E 45 0,0
25.06.2017 05:00:00 10,5 9,3 19 10 24 13 E 39 0,0
25.06.2017 04:00:00 10,7 9,0 18 10 25 13 E 50 0,0
25.06.2017 03:00:00 10,8 9,2 21 11 26 14 E 50 0,0
25.06.2017 02:00:00 11,0 9,3 19 10 25 14 E 50 0,0
25.06.2017 01:00:00 10,9 8,6 22 12 27 15 E 50 0,0
25.06.2017 00:00:00 10,5 9,3 20 11 25 14 E 50 0,0
24.06.2017 23:00:00 10,6 8,4 16 8 20 11 E 50 0,0
24.06.2017 22:00:00 10,2 8,8 17 9 26 14 E 50 0,0
24.06.2017 21:00:00 10,2 9,0 23 12 29 16 E 50 0,0
24.06.2017 20:00:00 10,1 8,9 22 12 28 15 E 50 0,0
24.06.2017 19:00:00 9,9 8,3 20 11 26 14 E 48 0,0
24.06.2017 18:00:00 9,5 8,1 21 11 25 13 E 47 0,0
24.06.2017 17:00:00 9,1 7,7 16 9 19 10 E 44 0,0
24.06.2017 16:00:00 9,3 6,9 11 6 14 8 SE 50 0,0
24.06.2017 15:00:00 9,3 6,6 10 6 15 8 ESE 48 0,0
24.06.2017 14:00:00 9,3 7,4 13 7 16 9 ESE 50 0,0
24.06.2017 13:00:00 9,6 8,0 12 7 19 10 SE 43 0,0
24.06.2017 12:00:00 10,5 8,1 18 10 21 12 S 35 0,0
24.06.2017 11:00:00 10,2 8,0 18 10 23 12 S 45 0,0
24.06.2017 10:00:00 10,7 7,4 21 11 26 14 S 35 0,0
24.06.2017 09:00:00 10,1 7,3 20 11 25 13 SSE 36 0,0
24.06.2017 08:00:00 9,9 7,8 22 12 27 15 SSE 41 0,0
24.06.2017 07:00:00 9,1 8,3 20 11 23 13 SSE 38 0,0
24.06.2017 06:00:00 9,3 8,5 16 9 20 11 SSE 48 0,0
24.06.2017 05:00:00 9,4 8,2 13 7 16 8 SE 49 0,0
24.06.2017 04:00:00 9,8 7,9 11 6 16 9 S 48 0,0
24.06.2017 03:00:00 9,9 7,7 13 7 16 8 S 50 0,0
24.06.2017 02:00:00 10,2 7,6 10 5 16 8 S 50 0,0
24.06.2017 01:00:00 10,4 7,5 12 7 18 10 SSO 50 0,0
24.06.2017 00:00:00 10,1 7,2 17 9 21 11 SSO 50 0,0
23.06.2017 23:00:00 9,9 7,7 14 8 19 11 SSO 50 0,0
23.06.2017 22:00:00 9,7 7,8 16 9 21 11 SSO 50 0,0
23.06.2017 21:00:00 9,8 6,9 19 10 21 12 SSO 50 0,0
23.06.2017 20:00:00 9,7 6,8 18 10 22 12 SSO 50 0,0
23.06.2017 19:00:00 10,2 6,9 16 9 19 11 S 44 0,0
23.06.2017 18:00:00 10,6 6,2 12 7 16 9 S 40 0,0
23.06.2017 17:00:00 10,5 5,5 9 5 15 8 SSE 42 0,0
23.06.2017 16:00:00 10,6 5,4 11 6 16 8 S 43 0,0
23.06.2017 15:00:00 10,4 5,8 10 5 13 7 SSE 44 0,0
23.06.2017 14:00:00 11,1 4,5 7 4 13 7 NNE 33 0,0
23.06.2017 13:00:00 10,3 4,4 9 5 17 9 N 38 0,0
23.06.2017 12:00:00 9,4 4,8 13 7 20 11 N 49 0,0
23.06.2017 11:00:00 8,9 4,7 14 8 23 13 N 49 0,0
23.06.2017 10:00:00 8,7 4,9 21 12 29 16 N 50 0,0
23.06.2017 09:00:00 8,4 5,0 20 11 28 15 NNO 49 0,0
23.06.2017 08:00:00 8,2 4,8 18 10 28 15 NNO 50 0,0
23.06.2017 07:00:00 8,2 5,0 18 10 34 18 NNO 50 0,0
23.06.2017 06:00:00 8,0 4,8 22 12 31 17 NNO 50 0,0
23.06.2017 05:00:00 7,7 5,0 19 10 34 19 NNO 50 0,0
23.06.2017 04:00:00 7,7 5,0 22 12 31 17 NNO 50 0,0
23.06.2017 03:00:00 8,0 4,8 20 11 35 19 NNO 50 0,0
23.06.2017 02:00:00 8,3 4,7 23 13 37 20 NNO 50 0,0
23.06.2017 01:00:00 8,8 5,4 22 12 37 20 NNO 50 0,0
23.06.2017 00:00:00 9,0 4,6 21 12 36 19 NNO 50 0,0

tt = Temperatura
td = dewpoint
ff = velocità del vento
fx = gusts
dd = direzione del vento
vv = visibility
rr = precipitazioni

Stazioni seguenti

WeatherPro
AMSI
MeteoEarth